Location: *
(6.4833°N, 10.8667°W)
Time: 03:49:10
(UTC+00:00)

Daily predictions for brighter satellites

Satellite Brightness Start Highest point End
(mag) Time Altitude Azimuth Time Altitude Azimuth Time Altitude Azimuth
ATLAS 2AS CENTAUR R/B 4.1 04:02:04 38° ESE 04:02:04 38° ESE 04:09:03 10° NE
Ariane H10+ 4.1 04:37:09 16° ESE 04:37:09 16° ESE 04:38:35 10° E
CZ-2C R/B 4.1 04:40:38 16° ENE 04:40:38 16° ENE 04:41:34 10° ENE
Maqsat-H 4.3 04:35:15 36° SSW 04:37:40 41° SSE 05:17:01 10° E
ATLAS CENTAUR R/B 3.9 04:40:52 20° SE 04:40:52 20° SE 04:42:24 10° SE
ARIANE 5 DEB (SYLDA) 4.1 04:38:37 65° S 04:38:37 65° S 04:51:05 10° E
Ariane H10 3.7 04:49:50 32° E 04:49:50 32° E 04:51:55 10° E
ATLAS 3B CENTAUR R/B 4.1 04:50:03 12° SE 04:50:25 12° SE 04:52:15 10° ESE
OAO 2 Rocket 4.1 04:54:54 50° ENE 04:54:54 50° ENE 04:58:41 10° ENE
Cosmos 2297 Rocket 4.0 04:55:05 10° SSE 04:59:55 29° ESE 05:04:43 10° NE
Cosmos 1386 Rocket 4.3 05:00:26 38° N 05:03:01 85° W 05:09:12 10° S
ARIANE 42L R/B 3.2 05:10:39 62° SSW 05:11:01 65° S 05:23:00 10° E
Cosmos 2322 Rocket 2.4 05:09:18 17° N 05:13:41 69° ENE 05:19:20 10° SSE
Cosmos 407 Rocket 3.8 05:17:23 47° NNW 05:17:23 47° NNW 05:21:15 10° N
ARIANE 44L R/B 4.3 05:18:54 28° SSW 05:20:35 35° SSE 05:35:56 10° ESE
CZ-3 R/B 4.0 05:11:45 32° W 05:22:07 44° NW 05:31:22 10° NE
Cosmos 1190 Rocket 3.9 05:22:10 21° SSW 05:25:41 71° WNW 05:30:58 10° N
Cosmos 676 Rocket 4.3 05:27:09 10° S 05:32:27 70° ESE 05:37:43 10° NNE
Cosmos 2219 3.5 05:30:50 10° S 05:36:31 70° ESE 05:42:08 10° NNE
Lacrosse 4 Rocket 3.9 05:35:19 10° NNE 05:38:42 22° ENE 05:42:01 10° ESE
SL-16 R/B 2.5 05:38:42 31° WNW 05:40:42 42° WSW 05:46:01 10° S
RESURS DK-1 2.6 05:36:57 10° S 05:41:02 70° ESE 05:45:07 10° NNE
Atlas Centaur 2 3.2 05:38:11 14° SSW 05:41:12 30° SE 05:45:32 10° E
Ariane H10 1.9 05:42:07 67° W 05:42:26 89° NNW 05:44:28 10° E
Ariane 44LP R/B 4.2 05:40:09 25° SW 05:42:53 55° SSE 06:06:48 10° E
Landsat 5 3.1 05:41:52 10° S 05:45:41 64° WSW 05:49:26 10° NNW
Cosmos 1805 Rocket 3.4 05:43:29 10° N 05:47:55 76° W 05:52:19 10° S
Intelsat 5-1 Rocket 3.9 05:43:12 10° SW 05:48:48 26° S 05:51:41 10° ESE
Cosmos 1743 Rocket 4.4 05:49:26 29° WSW 05:49:26 29° WSW 05:52:51 10° SSW
ATLAS 2AS CENTAUR R/B 3.7 05:49:39 22° W 05:52:44 29° WNW 05:59:18 10° N
Ariane H10 2.8 05:49:39 21° W 05:54:49 61° SSW 05:57:58 10° ESE
SL-8 R/B 3.8 05:52:30 21° WSW 05:55:32 55° NW 06:00:12 10° NNE
Cosmos 1992 Rocket 3.9 05:50:27 10° NNW 05:55:38 83° WSW 06:00:50 10° S
Cosmos 1812 3.7 05:53:48 10° S 05:57:31 49° E 06:01:13 10° NNE
CZ-4B R/B 4.2 05:55:32 10° SE 05:58:01 20° ENE 06:00:25 10° NNE
Cosmos 1140 Rocket 4.5 05:57:34 21° W 05:58:57 24° WNW 06:03:05 10° NNW
ARIANE 5 DEB (SYLDA) 3.0 05:55:00 20° W 05:59:04 53° SSW 06:01:50 10° ESE
deb Chang Zheng 4 3.4 05:55:50 10° N 06:00:07 76° WNW 06:04:27 10° SSW
CZ-4C R/B 3.8 06:02:42 10° SSW 06:05:23 25° W 06:06:56 18° WNW
YAOGAN 6 2.6 06:02:07 10° NNE 06:05:34 77° ESE 06:09:02 10° S
Cosmos 2237 4.3 06:01:34 10° NNW 06:07:03 52° WSW 06:12:32 10° S
Envisat 3.0 06:02:35 10° NNE 06:07:39 88° ESE 06:12:44 10° SSW
Sich 1 3.1 06:05:16 10° NNW 06:09:29 52° W 06:13:42 10° S
Cosmos 1666 Rocket 3.7 06:07:00 10° N 06:11:23 82° E 06:15:50 10° S
H-2A R/B 3.0 06:08:22 10° N 06:12:04 46° WNW 06:15:44 10° SSW
H-2A R/B 2.1 06:07:46 10° S 06:12:04 55° WSW 06:16:15 10° NNW
SJ-7 4.4 06:09:18 10° N 06:13:21 86° WNW 06:17:28 10° SSW
Meteor 1-20 Rocket 4.3 06:07:55 10° N 06:13:43 89° W 06:19:34 10° S
Lacrosse 5 rocket 3.2 06:10:12 10° S 06:13:56 33° ESE 06:17:52 10° NE
SeaSat 1 4.4 06:12:31 10° SE 06:16:48 31° ENE 06:21:05 10° N
DELTA 4 R/B 3.5 06:16:43 10° N 06:16:59 10° N 06:17:15 10° NNE
CZ-2C R/B 3.2 06:14:58 12° WNW 06:17:04 16° NNW 06:19:47 10° N
Cosmos 1437 Rocket 4.3 06:15:03 10° SW 06:17:50 18° W 06:20:37 10° NW
USA 215 4.3 06:12:13 10° NE 06:18:29 49° SE 06:24:44 10° SSW
SKYMED 2 3.8 06:15:31 10° SSE 06:19:51 75° ENE 06:24:10 10° N
CZ-4B R/B 3.7 06:15:51 10° NNW 06:19:54 35° WNW 06:23:52 10° SW
Cosmos 1151 Rocket 4.4 06:17:46 10° SW 06:20:40 17° W 06:23:33 10° NW
Cosmos 1782 4.1 06:18:45 10° SW 06:21:31 18° W 06:24:17 10° NW
Mugunghwa Rocket 4.0 06:16:20 10° WNW 06:23:06 83° SSW 06:29:25 10° ESE
Cosmos 2360 Rocket 2.6 06:19:49 10° NW 06:25:05 41° WSW 06:30:21 10° S
Cosmos 1242 Rocket 2.6 06:21:54 10° SSW 06:25:12 47° W 06:28:31 10° N
ARIANE 5 R/B 3.9 06:13:19 10° W 06:27:47 47° S 06:30:56 10° ESE
Cosmos 2333 4.3 06:22:12 10° NNW 06:27:59 89° W 06:33:45 10° SSE
Cosmos 2227 Rocket 2.6 06:22:51 10° SW 06:28:07 40° WNW 06:33:23 10° N
Cosmos 2184 Rocket 4.1 06:21:46 10° N 06:28:07 85° W 06:34:31 10° S
MOS 1 Rocket 3.0 06:25:12 10° S 06:29:26 67° W 06:33:42 10° NNW
NATO 3D Rocket 4.3 06:24:05 10° W 06:29:36 57° NNW 06:37:26 10° ENE
Ariane H10 1.3 06:31:20 10° W 06:35:41 84° N 06:38:30 10° E
NOAA 12 4.5 06:31:15 10° NNE 06:36:31 73° ESE 06:41:45 10° S
